Date String (YYYY-MM-DD hh:mm:ss) UTC,Instrument flags,Ambient pressure (hPa),Sample flow (lpm),Bypass flow (lpm),Sample temperature (°C),Ambient temperature (°C),ASC tube jacket temperature (°C),LED temperature (°C),Box temperature (°C),Sample RH (%),Span deviation,Mass concentration (μg/m³),Mass concentration (μg/m³),Mass concentration (μg/m³)
DateTimeUTC,F1_M11,P_M11,Q1_M11,Q2_M11,T1_M11,T2_M11,T3_M11,T4_M11,T5_M11,U1_M11,ZSPAN_M11,X0_M11,X2_M11,X1_M11
2023-03-06 01:00:00,,0817.8,5.00,0.00,21.7,20.1,00.0,30.5,23.4,13.0,0000.0,0006.24,0002.05,0001.33
2023-03-06 01:01:00,,0817.8,5.00,0.00,21.7,20.0,00.0,30.5,23.4,13.0,0000.0,0006.01,0002.02,0001.34
2023-03-06 01:02:00,,0817.8,5.01,0.00,21.7,20.0,00.0,30.5,23.3,13.0,0000.0,0004.21,0002.01,0001.35
2023-03-06 01:03:00,,0817.9,5.00,0.00,21.7,20.0,00.0,30.5,23.3,13.0,0000.0,0003.54,0001.98,0001.34
2023-03-06 01:04:00,,0817.9,5.00,0.00,21.6,19.9,00.0,30.5,23.3,13.1,0000.0,0003.62,0002.01,0001.34
2023-03-06 01:05:00,,0817.9,5.00,0.00,21.6,19.9,00.0,30.5,23.2,13.1,0000.0,0003.65,0002.01,0001.33
2023-03-06 01:06:00,,0817.9,5.00,0.00,21.6,19.9,00.0,30.4,23.2,13.1,0000.0,0004.24,0001.96,0001.30
2023-03-06 01:07:00,,0817.9,4.99,0.00,21.6,19.8,00.0,30.4,23.2,13.1,0000.0,0004.68,0001.98,0001.27
2023-03-06 01:08:00,,0817.9,4.99,0.00,21.6,19.7,00.0,30.4,23.2,13.1,0000.0,0004.52,0001.93,0001.25
2023-03-06 01:09:00,,0818.0,5.00,0.00,21.5,19.7,00.0,30.4,23.1,13.1,0000.0,0004.55,0001.93,0001.23
2023-03-06 01:10:00,,0818.2,5.02,0.00,21.5,19.6,00.0,30.4,23.0,13.1,0000.0,0004.59,0001.93,0001.21
2023-03-06 01:11:00,,0818.3,5.01,0.00,21.5,20.0,00.0,30.3,23.1,13.1,0000.0,0004.61,0001.92,0001.18
2023-03-06 01:12:00,,0818.3,5.01,0.00,21.6,21.2,00.0,30.3,23.4,13.0,0000.0,0004.72,0001.93,0001.15
2023-03-06 01:13:00,,0818.3,4.98,0.00,21.7,22.2,00.0,30.3,23.7,12.9,0000.0,0004.85,0001.96,0001.12
2023-03-06 01:14:00,,0818.4,4.97,0.00,21.8,22.5,00.0,30.4,23.9,12.8,0000.0,0004.94,0001.95,0001.11
2023-03-06 01:15:00,,0818.4,5.03,0.00,21.8,21.9,00.0,30.4,23.7,12.9,0000.0,0005.27,0001.91,0001.09
2023-03-06 01:16:00,,0818.4,5.00,0.00,21.8,21.2,00.0,30.5,23.5,12.9,0000.0,0005.33,0001.89,0001.08
2023-03-06 01:17:00,,0818.4,5.00,0.00,21.7,20.7,00.0,30.5,23.3,13.0,0000.0,0004.65,0001.89,0001.06
2023-03-06 01:18:00,,0818.4,5.01,0.00,21.6,20.2,00.0,30.5,23.2,13.1,0000.0,0004.18,0001.84,0001.05
2023-03-06 01:19:00,,0818.4,5.00,0.00,21.6,19.9,00.0,30.5,23.1,13.1,0000.0,0004.35,0001.90,0001.04
2023-03-06 01:20:00,,0818.4,5.01,0.00,21.5,19.7,00.0,30.4,23.0,13.1,0000.0,0005.05,0001.97,0001.04
2023-03-06 01:21:00,,0818.5,5.00,0.00,21.4,19.5,00.0,30.4,22.9,13.1,0000.0,0005.99,0001.99,0001.03
2023-03-06 01:22:00,,0818.8,4.99,0.00,21.4,19.2,00.0,30.4,22.7,13.2,0000.0,0006.02,0002.01,0001.03
2023-03-06 01:23:00,,0818.9,5.00,0.00,21.3,19.0,00.0,30.3,22.5,13.2,0000.0,0005.80,0001.97,0001.02
2023-03-06 01:24:00,,0818.9,5.01,0.00,21.2,18.8,00.0,30.3,22.4,13.3,0000.0,0006.04,0001.94,0001.03
2023-03-06 01:25:00,,0818.8,5.03,0.00,21.2,19.5,00.0,30.2,22.6,13.4,0000.0,0006.22,0001.98,0001.03
2023-03-06 01:26:00,,0818.6,5.01,0.00,21.3,20.9,00.0,30.2,23.1,13.2,0000.0,0005.92,0001.99,0001.04
2023-03-06 01:27:00,,0818.3,5.03,0.00,21.4,22.0,00.0,30.2,23.4,13.1,0000.0,0005.68,0002.00,0001.05
2023-03-06 01:28:00,,0818.0,4.96,0.00,21.6,22.2,00.0,30.2,23.5,12.9,0000.0,0005.78,0002.03,0001.06
2023-03-06 01:29:00,,0818.1,4.97,0.00,21.6,21.6,00.0,30.3,23.4,12.9,0000.0,0005.91,0002.07,0001.07
2023-03-06 01:30:00,,0818.5,5.00,0.00,21.5,21.0,00.0,30.3,23.1,13.0,0000.0,0006.51,0002.06,0001.07
2023-03-06 01:31:00,,0818.9,5.00,0.00,21.5,20.5,00.0,30.3,23.1,13.0,0000.0,0006.43,0001.97,0001.07
2023-03-06 01:32:00,,0819.0,4.99,0.00,21.4,20.1,00.0,30.3,22.9,13.0,0000.0,0005.62,0001.98,0001.08
2023-03-06 01:33:00,,0819.0,5.01,0.00,21.3,19.8,00.0,30.3,22.8,13.1,0000.0,0005.86,0002.03,0001.09
2023-03-06 01:34:00,,0819.0,5.00,0.00,21.3,19.5,00.0,30.2,22.7,13.1,0000.0,0005.92,0002.04,0001.10
2023-03-06 01:35:00,,0818.9,5.00,0.00,21.2,19.3,00.0,30.2,22.6,13.2,0000.0,0005.76,0002.06,0001.10
2023-03-06 01:36:00,,0818.9,5.00,0.00,21.1,19.1,00.0,30.2,22.5,13.2,0000.0,0005.43,0002.05,0001.10
2023-03-06 01:37:00,,0818.9,5.00,0.00,21.1,18.9,00.0,30.1,22.4,13.3,0000.0,0005.22,0001.99,0001.09
2023-03-06 01:38:00,,0819.0,5.01,0.00,21.0,19.2,00.0,30.1,22.4,13.3,0000.0,0005.16,0001.96,0001.08
2023-03-06 01:39:00,,0819.0,4.98,0.00,21.1,20.5,00.0,30.0,22.8,13.3,0000.0,0005.07,0001.92,0001.08
2023-03-06 01:40:00,,0819.1,5.02,0.00,21.3,21.7,00.0,30.0,23.2,13.3,0000.0,0005.12,0001.93,0001.08
2023-03-06 01:41:00,,0819.1,5.01,0.00,21.4,21.7,00.0,30.1,23.2,13.2,0000.0,0005.15,0001.92,0001.07
2023-03-06 01:42:00,,0819.0,4.98,0.00,21.3,20.9,00.0,30.1,23.0,13.2,0000.0,0006.50,0001.97,0001.09
2023-03-06 01:43:00,,0819.0,4.99,0.00,21.2,20.2,00.0,30.1,22.7,13.3,0000.0,0007.67,0001.95,0001.09
2023-03-06 01:44:00,,0819.0,5.01,0.00,21.1,19.6,00.0,30.1,22.5,13.4,0000.0,0007.47,0001.88,0001.09
2023-03-06 01:45:00,,0818.8,5.00,0.00,21.0,19.2,00.0,30.1,22.3,13.5,0000.0,0007.53,0001.91,0001.08
2023-03-06 01:46:00,,0818.9,5.00,0.00,20.9,18.9,00.0,30.0,22.2,13.5,0000.0,0007.49,0001.90,0001.08
2023-03-06 01:47:00,,0819.0,5.01,0.00,20.8,19.0,00.0,30.0,22.2,13.6,0000.0,0007.43,0001.88,0001.08
2023-03-06 01:48:00,,0819.1,5.03,0.00,20.9,20.4,00.0,29.9,22.6,13.6,0000.0,0007.43,0001.85,0001.07
2023-03-06 01:49:00,,0819.1,5.02,0.00,21.1,21.5,00.0,29.9,23.0,13.5,0000.0,0007.86,0001.92,0001.08
2023-03-06 01:50:00,,0819.1,5.01,0.00,21.3,22.2,00.0,30.0,23.2,13.3,0000.0,0008.00,0001.92,0001.08
2023-03-06 01:51:00,,0819.1,4.99,0.00,21.3,21.6,00.0,30.0,23.1,13.3,0000.0,0008.44,0001.88,0001.08
2023-03-06 01:52:00,,0819.1,4.99,0.00,21.2,20.6,00.0,30.0,22.8,13.4,0000.0,0008.17,0001.88,0001.09
2023-03-06 01:53:00,,0819.2,4.99,0.00,21.1,19.9,00.0,30.0,22.5,13.4,0000.0,0007.02,0001.83,0001.08
2023-03-06 01:54:00,,0819.2,5.01,0.00,21.0,19.4,00.0,30.0,22.4,13.5,0000.0,0005.31,0001.85,0001.07
2023-03-06 01:55:00,,0819.2,5.00,0.00,20.9,19.0,00.0,30.0,22.2,13.6,0000.0,0005.34,0001.85,0001.08
2023-03-06 01:56:00,,0819.2,5.00,0.00,20.8,18.7,00.0,29.9,22.0,13.6,0000.0,0005.17,0001.80,0001.10
2023-03-06 01:57:00,,0819.1,5.01,0.00,20.7,18.7,00.0,29.9,22.0,13.7,0000.0,0006.04,0001.80,0001.10
2023-03-06 01:58:00,,0819.2,5.02,0.00,20.8,20.0,00.0,29.8,22.4,13.6,0000.0,0006.52,0001.79,0001.10
2023-03-06 01:59:00,,0819.2,5.01,0.00,21.0,21.2,00.0,29.8,22.8,13.5,0000.0,0006.86,0001.82,0001.12
